{"data":{"norad_id":65738,"epoch":"2026-05-24T22:06:33.314688Z","epoch_age_seconds":81543,"freshness":"FRESH","line1":"1 65738U 25216E   26144.92121892  .00013385  00000+0  46307-3 0  9998","line2":"2 65738  53.1610 338.9032 0001169  79.1882 280.9250 15.30209734 38266","mean_motion":15.30209734,"eccentricity":0.0001169,"inclination_deg":53.161,"raan_deg":338.9032,"arg_perigee_deg":79.1882,"mean_anomaly_deg":280.925,"bstar":0.00046307,"rev_number":3826,"period_min":94.104747081683,"perigee_km":474.3848521446,"apogee_km":475.98715906331,"semimajor_km":6853.323005604,"source":"CELESTRAK","updated_at":"2026-05-25T13:38:20.928774Z"}}